Location: Trout Lake
(45.9980°N, 121.5270°W)
Time: 19:54:49
(UTC-08:00)

YAOGAN 3 - Pass Details

Date: 06 December 2023
Orbit: 615 x 616 km, 97.9° (Epoch: 22 February)

Event Time Altitude Azimuth Distance (km) Brightness Sun altitude
Rises 18:27:53 0° 160° (SSE) 2,871 7.9 -21.2°
Reaches altitude 10° 18:30:04 10° 158° (SSE) 1,971 7.0 -21.6°
Maximum altitude 18:34:20 72° 75° (ENE) 651 4.4 -22.3°
Drops below altitude 10° 18:38:39 10° 351° (N) 1,990 7.1 -23.0°
Sets 18:40:51 0° 349° (N) 2,901 8.0 -23.4°
